Location: Palmerston North
(40.3500°S, 175.6170°E)
Time: 00:18:57
(UTC+12:00)

SPOT 1/Viking Rocket - Pass Details

Date: 24 January 2019
Orbit: 778 x 794 km, 98.5° (Epoch: 19 April)

Event Time Altitude Azimuth Distance (km) Brightness Sun altitude
Rises 23:02:08 0° 158° (SSE) 3,332 7.2 -21.3°
Reaches altitude 10° 23:04:40 10° 149° (SSE) 2,394 6.3 -21.6°
Enters shadow 23:09:26 36° 85° (E) 1,247 4.2 -22.1°
